K4AXV-13 Weather Reports


Display with metric or nautical units.
time (UTC)temp
F
wind
direction
speed
MPH
gust
MPH
rain 1hr
in
rain 24hr
in
rain mn
in
humidity
%
barometer
mb
20260507064247 71 6 0.0 0.0 0.00 0.00 0.00
20260507063746 71 6 0.0 0.0 0.00 0.00 0.00
20260507063247 71 6 0.0 0.0 0.00 0.00 0.00
20260507062745 71 6 0.0 0.0 0.00 0.00 0.00
20260507062246 72 6 0.0 0.0 0.00 0.00 0.00
20260507061745 72 6 0.0 0.0 0.00 0.00 0.00
20260507060957 72 6 0.0 0.0 0.00 0.00 0.00
20260507060858 72 6 0.0 0.0 0.00 0.00 0.00
20260507060743 72 6 0.0 0.0 0.00 0.00 0.00
20260507060244 72 6 0.0 0.0 0.00 0.00 0.00
20260507055743 73 6 0.0 0.0 0.00 0.00 0.00
20260507054939 73 6 0.0 0.0 0.00 0.00 0.00
20260507054742 73 6 0.0 0.0 0.00 0.00 0.00
20260507054321 72 6 0.0 0.0 0.00 0.00 0.00
20260507054243 72 6 0.0 0.0 0.00 0.00 0.00
20260507053741 73 6 0.0 0.0 0.00 0.00 0.00
20260507052741 73 354 0.0 2.0 0.00 0.00 0.00
20260507051744 73 273 1.0 0.0 0.00 0.00 0.00
20260507051241 73 298 0.0 1.0 0.00 0.00 0.00
20260507050739 73 338 3.0 5.0 0.00 0.00 0.00
20260507050417 73 288 2.0 2.0 0.00 0.00 0.00
20260507050240 73 288 2.0 2.0 0.00 0.00 0.00
20260507050007 73 357 2.0 2.0 0.00 0.00 0.00
20260507045859 73 357 2.0 2.0 0.00 0.00 0.00
20260507045444 73 357 2.0 2.0 0.00 0.00 0.00
20260507045239 73 357 2.0 2.0 0.00 0.00 0.00
20260507044239 73 235 1.0 0.0 0.00 0.00 0.00
20260507043737 73 354 3.0 3.0 0.00 0.00 0.00
20260507043238 73 17 1.0 5.0 0.00 0.00 0.00
20260507042736 73 281 3.0 2.0 0.00 0.00 0.00
20260507040736 73 297 3.0 5.0 0.00 0.00 0.00
20260507040545 72 305 1.0 1.0 0.00 0.00 0.00
20260507040236 72 305 1.0 1.0 0.00 0.00 0.00
20260507035734 73 219 3.0 2.0 0.00 0.00 0.00
20260507035236 73 18 5.0 1.0 0.00 0.00 0.00
20260507035030 73 17 4.0 2.0 0.00 0.00 0.00
20260507034732 73 17 4.0 2.0 0.00 0.00 0.00
20260507034233 73 253 2.0 1.0 0.00 0.00 0.00
20260507033232 72 236 5.0 0.0 0.00 0.00 0.00
20260507032731 73 0 4.0 2.0 0.00 0.00 0.00
20260507031730 72 260 4.0 0.0 0.00 0.00 0.00
20260507031231 72 322 3.0 1.0 0.00 0.00 0.00
20260507030728 72 238 3.0 3.0 0.00 0.00 0.00
20260507030229 72 347 0.0 2.0 0.00 0.00 0.00
20260507025928 72 238 3.0 4.0 0.00 0.00 0.00
20260507025727 72 238 3.0 4.0 0.00 0.00 0.00
20260507025229 72 115 0.0 0.0 0.00 0.00 0.00
20260507024226 72 295 0.0 2.0 0.00 0.00 0.00
20260507023841 72 325 3.0 1.0 0.00 0.00 0.00
20260507023755 72 264 3.0 0.0 0.00 0.00 0.00
20260507023753 72 325 3.0 1.0 0.00 0.00 0.00
20260507023723 72 264 3.0 0.0 0.00 0.00 0.00
20260507023224 72 325 3.0 1.0 0.00 0.00 0.00
20260507022721 72 259 1.0 4.0 0.00 0.00 0.00
20260507022222 72 238 2.0 5.0 0.00 0.00 0.00
20260507021222 72 308 2.0 2.0 0.00 0.00 0.00
20260507020218 71 15 2.0 2.0 0.00 0.00 0.00
20260507015714 72 250 0.0 3.0 0.00 0.00 0.00
20260507015528 72 314 1.0 3.0 0.00 0.00 0.00
20260507015333 72 314 1.0 3.0 0.00 0.00 0.00
20260507015215 72 314 1.0 3.0 0.00 0.00 0.00
20260507014711 72 345 2.0 2.0 0.00 0.00 0.00
20260507013710 73 39 0.0 2.0 0.00 0.00 0.00
20260507012708 72 285 0.0 0.0 0.00 0.00 0.00
20260507011706 72 339 1.0 0.0 0.00 0.00 0.00
20260507011207 73 349 0.0 1.0 0.00 0.00 0.00
20260507010706 73 322 1.0 0.0 0.00 0.00 0.00
20260507010207 73 354 3.0 2.0 0.00 0.00 0.00
20260507005703 73 238 0.0 1.0 0.00 0.00 0.00
20260507005204 73 274 1.0 3.0 0.00 0.00 0.00
20260507004701 73 25 0.0 0.0 0.00 0.00 0.00
20260507003659 73 256 1.0 2.0 0.00 0.00 0.00
20260507003200 74 352 1.0 1.0 0.00 0.00 0.00
20260507002657 74 314 0.0 0.0 0.00 0.00 0.00
20260507002158 74 307 1.0 0.0 0.00 0.00 0.00
20260507001654 74 277 5.0 9.0 0.00 0.00 0.00
20260507000653 75 349 1.0 3.0 0.00 0.00 0.00
20260507000154 75 333 4.0 1.0 0.00 0.00 0.00
20260506235653 75 357 1.0 0.0 0.00 0.00 0.00
20260506235154 76 325 2.0 3.0 0.00 0.00 0.00
20260506234650 76 301 1.0 0.0 0.00 0.00 0.00
20260506234151 76 329 1.0 2.0 0.00 0.00 0.00
20260506233647 77 96 0.0 0.0 0.00 0.00 0.00
20260506233148 76 307 3.0 6.0 0.00 0.00 0.00
20260506232645 76 248 0.0 0.0 0.00 0.00 0.00
20260506231642 77 318 1.0 0.0 0.00 0.00 0.00
20260506231143 77 3 0.0 0.0 0.00 0.00 0.00
20260506230904 78 350 1.0 4.0 0.00 0.00 0.00
20260506230640 78 350 1.0 4.0 0.00 0.00 0.00
20260506230142 78 21 1.0 0.0 0.00 0.00 0.00
20260506225638 79 307 3.0 1.0 0.00 0.00 0.00
20260506225139 79 108 1.0 4.0 0.00 0.00 0.00
20260506224137 79 325 1.0 0.0 0.00 0.00 0.00
20260506223635 79 359 1.0 0.0 0.00 0.00 0.00
20260506222634 80 304 2.0 0.0 0.00 0.00 0.00
20260506222135 80 325 1.0 0.0 0.00 0.00 0.00
20260506221631 80 323 1.0 4.0 0.00 0.00 0.00
20260506221132 80 352 2.0 0.0 0.00 0.00 0.00
20260506220132 81 70 1.0 1.0 0.00 0.00 0.00
20260506215628 81 340 2.0 0.0 0.00 0.00 0.00
20260506215128 81 326 0.0 1.0 0.00 0.00 0.00
20260506214127 81 75 2.0 2.0 0.00 0.00 0.00
20260506213626 81 115 2.0 1.0 0.00 0.00 0.00
20260506212625 82 315 2.0 0.0 0.00 0.00 0.00
20260506211624 83 10 5.0 2.0 0.00 0.00 0.00
20260506205124 83 311 3.0 6.0 0.00 0.00 0.00
20260506204620 84 301 1.0 4.0 0.00 0.00 0.00
20260506204122 83 114 4.0 5.0 0.00 0.00 0.00
20260506203618 85 124 2.0 0.0 0.00 0.00 0.00
20260506203119 85 4 1.0 0.0 0.00 0.00 0.00
20260506202618 85 262 5.0 4.0 0.00 0.00 0.00
20260506202119 84 79 2.0 5.0 0.00 0.00 0.00
20260506201615 85 31 3.0 1.0 0.00 0.00 0.00
20260506201116 85 270 2.0 5.0 0.00 0.00 0.00
20260506200614 83 263 2.0 3.0 0.00 0.00 0.00
20260506200115 84 277 3.0 1.0 0.00 0.00 0.00
20260506195614 84 307 0.0 0.0 0.00 0.00 0.00
20260506195115 84 325 2.0 2.0 0.00 0.00 0.00
20260506194114 84 285 2.0 0.0 0.00 0.00 0.00
20260506193612 83 352 1.0 4.0 0.00 0.00 0.00
20260506191111 85 295 2.0 1.0 0.00 0.00 0.00
20260506190610 85 318 3.0 5.0 0.00 0.00 0.00
20260506190111 85 311 2.0 0.0 0.00 0.00 0.00
20260506185609 85 0 4.0 1.0 0.00 0.00 0.00
20260506184110 86 235 4.0 6.0 0.00 0.00 0.00
20260506183608 86 332 3.0 3.0 0.00 0.00 0.00
20260506183109 86 332 3.0 0.0 0.00 0.00 0.00
20260506182608 85 305 2.0 6.0 0.00 0.00 0.00
20260506182109 86 271 3.0 4.0 0.00 0.00 0.00
20260506181605 86 328 1.0 0.0 0.00 0.00 0.00
20260506180604 85 316 4.0 0.0 0.00 0.00 0.00
20260506180105 85 283 0.0 0.0 0.00 0.00 0.00
20260506175603 85 225 5.0 6.0 0.00 0.00 0.00
20260506175105 84 257 5.0 8.0 0.00 0.00 0.00
20260506174602 84 255 3.0 2.0 0.00 0.00 0.00
20260506174103 84 349 5.0 2.0 0.00 0.00 0.00
20260506173602 84 314 3.0 2.0 0.00 0.00 0.00
20260506173103 84 319 7.0 5.0 0.00 0.00 0.00
20260506172601 84 340 4.0 1.0 0.00 0.00 0.00
20260506172103 84 8 6.0 2.0 0.00 0.00 0.00
20260506171559 85 236 3.0 0.0 0.00 0.00 0.00
20260506171100 86 359 3.0 0.0 0.00 0.00 0.00
20260506170558 86 295 5.0 6.0 0.00 0.00 0.00
20260506170059 85 323 1.0 4.0 0.00 0.00 0.00
20260506165556 85 300 2.0 0.0 0.00 0.00 0.00
20260506165057 85 255 2.0 5.0 0.00 0.00 0.00
20260506164555 87 229 2.0 0.0 0.00 0.00 0.00
20260506164056 86 248 4.0 1.0 0.00 0.00 0.00
20260506163553 88 311 0.0 4.0 0.00 0.00 0.00
20260506163054 88 248 6.0 2.0 0.00 0.00 0.00
20260506162553 88 108 1.0 0.0 0.00 0.00 0.00
20260506162054 88 326 5.0 1.0 0.00 0.00 0.00
20260506161550 88 249 2.0 4.0 0.00 0.00 0.00
20260506161050 87 321 6.0 5.0 0.00 0.00 0.00
20260506160547 87 314 3.0 3.0 0.00 0.00 0.00
20260506160048 86 305 3.0 5.0 0.00 0.00 0.00
20260506155546 86 342 6.0 4.0 0.00 0.00 0.00
20260506155047 86 291 3.0 2.0 0.00 0.00 0.00
20260506154545 85 305 4.0 5.0 0.00 0.00 0.00
20260506153543 83 239 0.0 0.0 0.00 0.00 0.00
20260506152542 82 352 2.0 0.0 0.00 0.00 0.00
20260506152043 81 4 4.0 3.0 0.00 0.00 0.00
20260506151042 80 347 2.0 5.0 0.00 0.00 0.00
20260506150042 79 314 4.0 2.0 0.00 0.00 0.00
20260506145727 78 319 3.0 3.0 0.00 0.00 0.00
20260506145042 78 319 3.0 3.0 0.00 0.00 0.00
20260506144129 77 335 3.0 3.0 0.00 0.00 0.00
20260506144041 77 243 0.0 0.0 0.00 0.00 0.00
20260506143543 76 326 3.0 5.0 0.00 0.00 0.00
20260506143540 77 335 3.0 3.0 0.00 0.00 0.00
20260506143041 76 326 3.0 5.0 0.00 0.00 0.00
20260506142539 76 315 5.0 2.0 0.00 0.00 0.00
20260506142447 76 291 0.0 0.0 0.00 0.00 0.00
20260506142041 76 291 0.0 0.0 0.00 0.00 0.00
20260506141904 76 308 2.0 0.0 0.00 0.00 0.00
20260506141539 76 308 2.0 0.0 0.00 0.00 0.00
20260506141414 75 270 2.0 4.0 0.00 0.00 0.00
20260506141040 75 270 2.0 4.0 0.00 0.00 0.00
20260506140734 75 312 2.0 3.0 0.00 0.00 0.00
20260506140638 75 312 2.0 3.0 0.00 0.00 0.00
20260506140538 75 312 2.0 3.0 0.00 0.00 0.00
20260506140300 75 283 3.0 1.0 0.00 0.00 0.00
20260506140038 75 283 3.0 1.0 0.00 0.00 0.00
20260506135247 74 300 1.0 0.0 0.00 0.00 0.00
20260506135037 74 300 1.0 0.0 0.00 0.00 0.00
20260506134628 74 239 3.0 3.0 0.00 0.00 0.00
20260506134535 74 239 3.0 3.0 0.00 0.00 0.00
20260506134157 73 262 2.0 3.0 0.00 0.00 0.00
20260506134035 73 262 2.0 3.0 0.00 0.00 0.00
20260506133127 72 269 1.0 3.0 0.00 0.00 0.00
20260506133034 72 269 1.0 3.0 0.00 0.00 0.00
20260506130542 71 293 0.0 2.0 0.00 0.00 0.00
20260506130127 71 293 0.0 2.0 0.00 0.00 0.00
20260506130033 71 293 0.0 2.0 0.00 0.00 0.00
20260506125639 70 325 1.0 4.0 0.00 0.00 0.00
20260506125602 70 325 1.0 4.0 0.00 0.00 0.00
20260506125530 70 325 1.0 4.0 0.00 0.00 0.00
20260506125136 70 319 1.0 1.0 0.00 0.00 0.00
20260506125031 70 319 1.0 1.0 0.00 0.00 0.00
20260506124626 70 224 0.0 0.0 0.00 0.00 0.00
20260506124530 70 224 0.0 0.0 0.00 0.00 0.00
20260506124130 70 224 1.0 0.0 0.00 0.00 0.00
20260506124032 70 224 1.0 0.0 0.00 0.00 0.00
20260506122610 68 246 0.0 0.0 0.00 0.00 0.00
20260506122528 68 246 0.0 0.0 0.00 0.00 0.00
20260506122119 68 246 0.0 0.0 0.00 0.00 0.00
20260506122030 68 246 0.0 0.0 0.00 0.00 0.00
20260506121528 68 304 2.0 1.0 0.00 0.00 0.00
20260506121115 66 219 0.0 0.0 0.00 0.00 0.00
20260506121030 66 219 0.0 0.0 0.00 0.00 0.00
20260506120527 64 219 0.0 0.0 0.00 0.00 0.00
20260506120127 63 219 0.0 0.0 0.00 0.00 0.00
20260506120026 63 219 0.0 0.0 0.00 0.00 0.00
20260506115631 62 219 0.0 0.0 0.00 0.00 0.00
20260506115526 62 219 0.0 0.0 0.00 0.00 0.00
20260506114109 61 13 0.0 0.0 0.00 0.00 0.00
20260506114025 61 13 0.0 0.0 0.00 0.00 0.00
20260506113523 60 13 0.0 0.0 0.00 0.00 0.00
20260506113127 60 13 0.0 0.0 0.00 0.00 0.00
20260506113024 60 13 0.0 0.0 0.00 0.00 0.00
20260506112523 60 13 0.0 0.0 0.00 0.00 0.00
20260506112144 60 13 0.0 0.0 0.00 0.00 0.00
20260506112025 60 13 0.0 0.0 0.00 0.00 0.00
20260506111604 60 13 0.0 0.0 0.00 0.00 0.00
20260506111522 60 13 0.0 0.0 0.00 0.00 0.00
20260506111103 60 13 0.0 0.0 0.00 0.00 0.00
20260506111024 60 13 0.0 0.0 0.00 0.00 0.00
20260506110125 58 13 0.0 0.0 0.00 0.00 0.00
20260506110023 58 13 0.0 0.0 0.00 0.00 0.00
20260506105604 59 13 0.0 0.0 0.00 0.00 0.00
20260506105520 59 13 0.0 0.0 0.00 0.00 0.00
20260506105114 58 13 0.0 0.0 0.00 0.00 0.00
20260506105021 58 13 0.0 0.0 0.00 0.00 0.00
20260506104616 58 13 0.0 0.0 0.00 0.00 0.00
20260506104516 58 13 0.0 0.0 0.00 0.00 0.00
20260506103516 57 13 0.0 0.0 0.00 0.00 0.00
20260506103115 57 13 0.0 0.0 0.00 0.00 0.00
20260506103017 57 13 0.0 0.0 0.00 0.00 0.00
20260506102504 58 13 0.0 0.0 0.00 0.00 0.00
20260506102013 58 13 0.0 0.0 0.00 0.00 0.00
20260506101512 58 13 0.0 0.0 0.00 0.00 0.00
20260506101013 58 13 0.0 0.0 0.00 0.00 0.00
20260506100012 57 13 0.0 0.0 0.00 0.00 0.00
20260506095011 58 13 0.0 0.0 0.00 0.00 0.00
20260506094509 58 13 0.0 0.0 0.00 0.00 0.00
20260506094045 58 13 0.0 0.0 0.00 0.00 0.00
20260506094011 58 13 0.0 0.0 0.00 0.00 0.00
20260506093509 58 13 0.0 0.0 0.00 0.00 0.00
20260506093010 58 13 0.0 0.0 0.00 0.00 0.00
20260506092509 57 13 0.0 0.0 0.00 0.00 0.00
20260506092010 57 13 0.0 0.0 0.00 0.00 0.00
20260506091506 58 13 0.0 0.0 0.00 0.00 0.00
20260506090506 58 13 0.0 0.0 0.00 0.00 0.00
20260506085505 58 13 0.0 0.0 0.00 0.00 0.00
20260506085007 58 13 0.0 0.0 0.00 0.00 0.00
20260506084006 58 13 0.0 0.0 0.00 0.00 0.00
20260506083005 58 13 0.0 0.0 0.00 0.00 0.00
20260506082504 58 13 0.0 0.0 0.00 0.00 0.00
20260506081502 58 13 0.0 0.0 0.00 0.00 0.00
20260506073459 57 13 0.0 0.0 0.00 0.00 0.00
20260506073000 58 13 0.0 0.0 0.00 0.00 0.00
20260506072459 58 13 0.0 0.0 0.00 0.00 0.00
20260506072000 57 13 0.0 0.0 0.00 0.00 0.00
20260506070458 58 13 0.0 0.0 0.00 0.00 0.00